User: anonymous   Login
Location: Newark
(35.0033°N, 81.0878°W)
Time: 22:35:29
(UTC+00:00)
Language:

XW-2C - Orbit

View from above orbital plane
View from above orbital plane
View from above satellite
View from above satellite

Ground track
Ground track

The orbit data is extracted from the following two-line orbital elements,

1 40906U 15049H   19289.08399537  .00000286  00000-0  18445-4 0  9993
2 40906  97.4712 289.2157 0015475 139.9360 261.4454 15.15779599225089
Epoch (UTC): 16 October 2019 02:00:57
Eccentricity: 0.0015475
inclination: 97.4712°
perigee height: 508 km
apogee height: 529 km
right ascension of ascending node: 289.2157°
argument of perigee: 139.9360°
revolutions per day: 15.15779599
mean anomaly at epoch: 261.4454°
orbit number at epoch: 22508

The dashed part of the orbit path shows where the satellite is in the earth's shadow,  

DLR